Date String (YYYY-MM-DD hh:mm:ss) UTC,Instrument flags,Ambient pressure (hPa),Sample flow (lpm),Bypass flow (lpm),Sample temperature (°C),Ambient temperature (°C),ASC tube jacket temperature (°C),LED temperature (°C),Box temperature (°C),Sample RH (%),Span deviation,Mass concentration (μg/m³),Mass concentration (μg/m³),Mass concentration (μg/m³)
DateTimeUTC,F1_M11,P_M11,Q1_M11,Q2_M11,T1_M11,T2_M11,T3_M11,T4_M11,T5_M11,U1_M11,ZSPAN_M11,X2_M11,X0_M11,X1_M11
2023-04-09 14:00:00,,0835.1,5.01,0.00,22.8,21.2,00.0,31.1,24.4,16.6,0000.0,0003.28,0008.82,0001.96
2023-04-09 14:01:00,,0835.1,5.01,0.00,22.8,21.3,00.0,31.1,24.4,16.7,0000.0,0003.29,0009.24,0001.97
2023-04-09 14:02:00,,0834.9,5.00,0.00,22.8,21.3,00.0,31.1,24.5,16.6,0000.0,0003.29,0009.62,0001.98
2023-04-09 14:03:00,,0834.9,5.00,0.00,22.8,21.3,00.0,31.1,24.5,16.7,0000.0,0003.31,0009.45,0002.00
2023-04-09 14:04:00,,0835.0,5.01,0.00,22.8,21.3,00.0,31.1,24.5,16.9,0000.0,0003.33,0009.20,0002.02
2023-04-09 14:05:00,,0834.8,5.00,0.00,22.9,21.3,00.0,31.1,24.5,17.4,0000.0,0003.34,0008.99,0002.02
2023-04-09 14:06:00,,0834.8,5.00,0.00,22.9,21.3,00.0,31.1,24.5,17.4,0000.0,0003.34,0009.26,0002.03
2023-04-09 14:07:00,,0834.7,5.01,0.00,22.9,21.4,00.0,31.1,24.5,16.9,0000.0,0003.32,0009.18,0002.04
2023-04-09 14:08:00,,0834.6,5.00,0.00,22.9,21.4,00.0,31.1,24.5,17.0,0000.0,0003.31,0009.74,0002.04
2023-04-09 14:09:00,,0835.0,4.98,0.00,22.9,21.4,00.0,31.1,24.5,16.9,0000.0,0003.30,0009.23,0002.03
2023-04-09 14:10:00,,0835.2,5.01,0.00,22.9,21.4,00.0,31.1,24.5,16.9,0000.0,0003.29,0009.04,0002.03
2023-04-09 14:11:00,,0834.8,5.00,0.00,22.9,21.4,00.0,31.1,24.5,16.8,0000.0,0003.29,0008.93,0002.03
2023-04-09 14:12:00,,0834.7,5.00,0.00,22.9,21.4,00.0,31.1,24.5,17.1,0000.0,0003.31,0008.88,0002.03
2023-04-09 14:13:00,,0834.9,5.00,0.00,22.9,21.4,00.0,31.2,24.5,17.0,0000.0,0003.35,0008.52,0002.06
2023-04-09 14:14:00,,0834.9,5.00,0.00,22.9,21.4,00.0,31.2,24.6,17.0,0000.0,0003.34,0008.44,0002.07
2023-04-09 14:15:00,,0835.1,5.00,0.00,22.9,21.4,00.0,31.2,24.6,17.3,0000.0,0003.32,0008.22,0002.07
2023-04-09 14:16:00,,0835.1,5.00,0.00,22.9,21.5,00.0,31.2,24.6,17.3,0000.0,0003.35,0008.14,0002.09
2023-04-09 14:17:00,,0835.1,5.00,0.00,23.0,21.5,00.0,31.2,24.6,17.1,0000.0,0003.38,0008.51,0002.09
2023-04-09 14:18:00,,0834.8,5.01,0.00,23.0,21.5,00.0,31.2,24.6,17.1,0000.0,0003.42,0008.73,0002.09
2023-04-09 14:19:00,,0834.6,5.00,0.00,23.0,21.5,00.0,31.2,24.6,17.3,0000.0,0003.44,0008.49,0002.08
2023-04-09 14:20:00,,0834.7,5.00,0.00,23.0,21.5,00.0,31.2,24.6,17.3,0000.0,0003.49,0008.75,0002.08
2023-04-09 14:21:00,,0834.6,5.00,0.00,23.0,21.5,00.0,31.2,24.6,17.3,0000.0,0003.53,0008.86,0002.08
2023-04-09 14:22:00,,0835.1,4.99,0.00,23.0,21.5,00.0,31.2,24.6,17.5,0000.0,0003.57,0008.98,0002.08
2023-04-09 14:23:00,,0835.1,4.99,0.00,23.0,21.5,00.0,31.2,24.6,17.7,0000.0,0003.52,0008.78,0002.08
2023-04-09 14:24:00,,0834.7,5.00,0.00,23.0,21.5,00.0,31.2,24.6,18.0,0000.0,0003.46,0008.56,0002.07
2023-04-09 14:25:00,,0834.7,5.01,0.00,23.0,21.5,00.0,31.3,24.7,17.9,0000.0,0003.48,0009.37,0002.06
2023-04-09 14:26:00,,0834.8,5.01,0.00,23.0,21.5,00.0,31.3,24.7,17.6,0000.0,0003.47,0009.38,0002.04
2023-04-09 14:27:00,,0835.1,5.00,0.00,23.0,21.6,00.0,31.3,24.7,17.6,0000.0,0003.47,0009.41,0002.02
2023-04-09 14:28:00,,0835.1,5.00,0.00,23.0,21.6,00.0,31.3,24.6,18.0,0000.0,0003.49,0008.89,0002.03
2023-04-09 14:29:00,,0834.8,5.00,0.00,23.1,21.6,00.0,31.3,24.7,17.8,0000.0,0003.45,0008.64,0002.02
2023-04-09 14:30:00,,0834.6,5.01,0.00,23.1,21.6,00.0,31.3,24.7,17.7,0000.0,0003.45,0008.38,0002.02
2023-04-09 14:31:00,,0834.5,5.00,0.00,23.1,21.6,00.0,31.3,24.7,17.6,0000.0,0003.43,0008.06,0002.05
2023-04-09 14:32:00,,0834.6,5.01,0.00,23.1,21.6,00.0,31.3,24.7,17.1,0000.0,0003.39,0007.94,0002.05
2023-04-09 14:33:00,,0834.9,5.00,0.00,23.1,21.6,00.0,31.3,24.7,17.2,0000.0,0003.37,0008.02,0002.06
2023-04-09 14:34:00,,0835.1,5.00,0.00,23.1,21.6,00.0,31.3,24.7,17.1,0000.0,0003.42,0008.79,0002.05
2023-04-09 14:35:00,,0834.7,5.00,0.00,23.1,21.6,00.0,31.3,24.8,16.9,0000.0,0003.45,0008.66,0002.05
2023-04-09 14:36:00,,0834.9,5.00,0.00,23.1,21.6,00.0,31.4,24.8,17.0,0000.0,0003.45,0008.43,0002.07
2023-04-09 14:37:00,,0834.7,5.00,0.00,23.1,21.7,00.0,31.4,24.8,17.1,0000.0,0003.46,0008.61,0002.09
2023-04-09 14:38:00,,0834.7,4.99,0.00,23.1,21.7,00.0,31.4,24.8,17.2,0000.0,0003.44,0008.62,0002.11
2023-04-09 14:39:00,,0834.9,4.99,0.00,23.1,21.7,00.0,31.4,24.8,17.1,0000.0,0003.43,0008.69,0002.11
2023-04-09 14:40:00,,0834.7,5.00,0.00,23.2,21.7,00.0,31.4,24.8,17.4,0000.0,0003.45,0008.81,0002.12
2023-04-09 14:41:00,,0834.8,5.00,0.00,23.2,21.7,00.0,31.4,24.8,17.4,0000.0,0003.47,0009.03,0002.12
2023-04-09 14:42:00,,0834.7,5.01,0.00,23.2,21.7,00.0,31.4,24.8,17.1,0000.0,0003.45,0008.99,0002.10
2023-04-09 14:43:00,,0834.7,5.00,0.00,23.2,21.7,00.0,31.4,24.8,17.2,0000.0,0003.49,0009.22,0002.10
2023-04-09 14:44:00,,0834.7,5.00,0.00,23.2,21.8,00.0,31.4,24.8,17.1,0000.0,0003.49,0009.28,0002.09
2023-04-09 14:45:00,,0834.7,5.00,0.00,23.2,21.8,00.0,31.4,24.8,17.1,0000.0,0003.49,0009.32,0002.09
2023-04-09 14:46:00,,0834.8,4.99,0.00,23.2,21.8,00.0,31.4,24.8,17.3,0000.0,0003.46,0010.11,0002.08
2023-04-09 14:47:00,,0834.8,4.99,0.00,23.2,21.8,00.0,31.4,24.8,17.3,0000.0,0003.48,0010.96,0002.07
2023-04-09 14:48:00,,0834.9,5.01,0.00,23.2,21.8,00.0,31.5,24.8,17.2,0000.0,0003.50,0010.91,0002.07
2023-04-09 14:49:00,,0835.2,5.00,0.00,23.3,21.8,00.0,31.5,24.9,17.0,0000.0,0003.49,0010.85,0002.06
2023-04-09 14:50:00,,0835.4,4.99,0.00,23.3,21.8,00.0,31.5,24.9,17.0,0000.0,0003.47,0010.65,0002.06
2023-04-09 14:51:00,,0835.4,5.00,0.00,23.3,21.8,00.0,31.5,24.9,17.0,0000.0,0003.46,0010.92,0002.07
2023-04-09 14:52:00,,0834.8,5.01,0.00,23.3,21.8,00.0,31.5,24.9,17.0,0000.0,0003.47,0010.86,0002.09
2023-04-09 14:53:00,,0834.7,4.99,0.00,23.3,21.9,00.0,31.5,24.9,17.0,0000.0,0003.46,0010.79,0002.09
2023-04-09 14:54:00,,0834.7,4.99,0.00,23.3,21.9,00.0,31.5,24.9,17.0,0000.0,0003.47,0010.75,0002.12
2023-04-09 14:55:00,,0834.7,5.00,0.00,23.3,21.9,00.0,31.5,24.9,17.3,0000.0,0003.44,0010.68,0002.14
2023-04-09 14:56:00,,0834.7,5.00,0.00,23.3,21.9,00.0,31.5,24.9,17.5,0000.0,0003.43,0010.55,0002.15
2023-04-09 14:57:00,,0834.8,5.00,0.00,23.3,21.9,00.0,31.5,24.9,17.6,0000.0,0003.43,0010.04,0002.17
2023-04-09 14:58:00,,0835.0,4.99,0.00,23.3,21.9,00.0,31.6,24.9,17.3,0000.0,0003.42,0009.27,0002.19
2023-04-09 14:59:00,,0835.3,4.99,0.00,23.3,21.9,00.0,31.6,24.9,17.6,0000.0,0003.41,0008.78,0002.20
